Madrid, Spain

2:25 AM CET on March 25, 2017 (GMT +0100)
Madrid

Weather History for 08221 - June, 2013

Change the Weather History Date:

Wednesday, June 12, 2013

  Actual Average Record
Temperature  
Mean Temperature 74 °F -  
Max Temperature 91 °F 86 °F - ()
Min Temperature 57 °F 59 °F - ()
Cooling Degree Days 9    
Growing Degree Days 24 (Base 50)    
Moisture  
Dew Point 52 °F    
Average Humidity 44    
Maximum Humidity 77    
Minimum Humidity 14    
Precipitation  
Precipitation 0.00 in 0.03 in - ()
Sea Level Pressure  
Sea Level Pressure 30.15 in    
Wind  
Wind Speed 3 mph ()    
Max Wind Speed 9 mph    
Max Gust Speed 21 mph    
Visibility 9.9 miles    
Events      
T = Trace of Precipitation, MM = Missing Value Source: Averaged Metar Reports

Daily Weather History Graph

Daily Weather History Graph

Search for Another Location

Airport or City:

Trip Planner

Search our weather history database for the weather conditions in past years. The results will help you decide how hot, cold, wet, or windy it might be!

Date:

Astronomy

Jun. 12, 2013 Rise Set
Actual Time 6:43 AM CEST 9:45 PM CEST
Civil Twilight 6:10 AM CEST 10:18 PM CEST
Nautical Twilight 5:28 AM CEST 11:00 PM CEST
Astronomical Twilight 4:39 AM CEST 11:49 PM CEST
Moon 10:09 AM CEST (6/12) No Moon Set
Length of Visible Light 16h 07m
Length of Day
15h 01m
Waxing Crescent, 12% of the Moon is Illuminated
Jun 12
Waxing Crescent
Jun 16
First Quarter
Jun 23
Full
Jun 30
Last Quarter
Jul 8
New

Hourly Weather History & Observations

Time (CEST) Temp. Heat Index Dew Point Humidity Pressure Visibility Wind Dir Wind Speed Gust Speed Precip Events Conditions
12:00 AM 73.4 °F - 51.8 °F 47% 30.15 in - Variable 1.2 mph - N/A   Clear
12:30 AM 71.6 °F - 51.8 °F 50% 30.18 in - East 2.3 mph - N/A   Clear
1:00 AM 69.8 °F - 53.6 °F 56% 30.18 in - NE 2.3 mph - N/A   Clear
1:30 AM 69.8 °F - 51.8 °F 53% 30.18 in - Variable 1.2 mph - N/A   Clear
2:00 AM 67 °F - 51 °F 45% 30.12 in 19 mi SSE 1.2 mph - -   Clear
2:00 AM 69.8 °F - 51.8 °F 53% 30.18 in - Variable 1.2 mph - N/A   Clear
2:30 AM 68.0 °F - 51.8 °F 56% 30.18 in - ESE 2.3 mph - N/A   Clear
3:00 AM 66.2 °F - 53.6 °F 64% 30.18 in - NNE 3.5 mph - N/A   Clear
3:30 AM 64.4 °F - 53.6 °F 68% 30.18 in - NNE 4.6 mph - N/A   Clear
4:00 AM 62.6 °F - 53.6 °F 72% 30.18 in - North 2.3 mph - N/A   Clear
4:30 AM 62.6 °F - 51.8 °F 68% 30.18 in - NNW 3.5 mph - N/A   Clear
5:00 AM 60.8 °F - 51.8 °F 72% 30.18 in - NNW 3.5 mph - N/A   Clear
5:30 AM 60.8 °F - 51.8 °F 72% 30.18 in - NNW 4.6 mph - N/A   Clear
6:00 AM 60.8 °F - 51.8 °F 72% 30.18 in - NNW 3.5 mph - N/A   Clear
6:30 AM 59.0 °F - 51.8 °F 77% 30.18 in - North 4.6 mph - N/A   Clear
7:00 AM 59.0 °F - 51.8 °F 77% 30.18 in - North 4.6 mph - N/A   Clear
7:30 AM 59.0 °F - 51.8 °F 77% 30.18 in - North 3.5 mph - N/A   Clear
8:00 AM 62 °F - 51 °F 58% 30.17 in 19 mi North 2.3 mph - -  
8:00 AM 62.6 °F - 53.6 °F 72% 30.21 in - Variable 2.3 mph - N/A   Clear
8:30 AM 64.4 °F - 53.6 °F 68% 30.21 in - Variable 2.3 mph - N/A   Clear
9:00 AM 66.2 °F - 53.6 °F 64% 30.21 in - North 3.5 mph - N/A   Clear
9:30 AM 69.8 °F - 53.6 °F 56% 30.21 in - North 4.6 mph - N/A   Clear
10:00 AM 73.4 °F - 53.6 °F 50% 30.21 in - North 3.5 mph - N/A   Clear
10:30 AM 75.2 °F - 55.4 °F 50% 30.21 in - North 3.5 mph - N/A   Clear
11:00 AM 78.8 °F - 55.4 °F 44% 30.21 in - NNE 3.5 mph - N/A   Clear
11:30 AM 80.6 °F 80.3 °F 53.6 °F 39% 30.21 in - ESE 4.6 mph - N/A   Clear
12:00 PM 80.6 °F 80.3 °F 53.6 °F 39% 30.21 in - SSE 4.6 mph - N/A   Clear
12:30 PM 82.4 °F 81.4 °F 53.6 °F 37% 30.21 in - South 3.5 mph - N/A   Clear
1:00 PM 84.2 °F 82.8 °F 53.6 °F 35% 30.18 in - ESE 3.5 mph - N/A   Clear
1:30 PM 84.2 °F - 51.8 °F 33% 30.18 in - WNW 3.5 mph - N/A   Clear
2:00 PM 86 °F - 51 °F 20% 30.05 in 4 mi SW 5.8 mph - -   Scattered Clouds
2:00 PM 86.0 °F - 51.8 °F 31% 30.18 in - South 3.5 mph - N/A   Clear
2:30 PM 86.0 °F - 51.8 °F 31% 30.18 in - South 3.5 mph - N/A   Clear
3:00 PM 87.8 °F - 51.8 °F 29% 30.15 in - SSW 4.6 mph - N/A   Clear
3:30 PM 87.8 °F - 51.8 °F 29% 30.15 in - SW 4.6 mph - N/A   Clear
4:00 PM 89.6 °F - 51.8 °F 27% 30.15 in - West 2.3 mph - N/A   Clear
4:30 PM 89.6 °F - 51.8 °F 27% 30.12 in - SSW 4.6 mph 16.1 mph N/A   Clear
5:00 PM 91.4 °F - 50.0 °F 24% 30.12 in 6.2 mi SSW 4.6 mph - N/A   Partly Cloudy
5:30 PM 91.4 °F - 51.8 °F 26% 30.12 in 6.2 mi WSW 5.8 mph - N/A   Partly Cloudy
6:00 PM 89.6 °F - 50.0 °F 26% 30.09 in 6.2 mi SW 3.5 mph - N/A   Partly Cloudy
6:30 PM 91.4 °F - 50.0 °F 24% 30.09 in 6.2 mi SW 6.9 mph - N/A   Partly Cloudy
7:00 PM 91.4 °F - 50.0 °F 24% 30.09 in 6.2 mi SW 6.9 mph - N/A   Partly Cloudy
7:30 PM 91.4 °F - 50.0 °F 24% 30.09 in - WSW 5.8 mph 20.7 mph N/A   Clear
8:00 PM 91 °F - 48 °F 14% 29.94 in 16 mi WSW 6.9 mph - -   Scattered Clouds
8:00 PM 91.4 °F - 50.0 °F 24% 30.09 in - SW 4.6 mph - N/A   Clear
8:30 PM 91.4 °F - 50.0 °F 24% 30.09 in - SW 4.6 mph 16.1 mph N/A   Clear
9:00 PM 89.6 °F - 50.0 °F 26% 30.09 in - SSW 6.9 mph - N/A   Clear
9:30 PM 87.8 °F - 50.0 °F 27% 30.09 in - SSW 6.9 mph - N/A   Clear
10:00 PM 87.8 °F - 48.2 °F 25% 30.09 in - SW 9.2 mph - N/A   Clear
10:30 PM 86.0 °F - 50.0 °F 29% 30.09 in - Variable 9.2 mph - N/A   Clear
11:00 PM 84.2 °F - 50.0 °F 30% 30.12 in - WSW 6.9 mph 19.6 mph N/A   Clear
11:30 PM 84.2 °F - 51.8 °F 33% 30.12 in - WSW 6.9 mph - N/A   Clear